Location: Ostrava
(49.8330°N, 18.2830°E)
Time: 06:03:06
(UTC+02:00)

Explorer 7 - Visible Passes

Search period start: 20 August 2017 00:00
Search period end: 30 August 2017 00:00
Orbit: 486 x 684 km, 50.3° (Epoch: 19 August)

Date Brightness Start Highest point End Pass type
(mag) Time Alt. Az. Time Alt. Az. Time Alt. Az.
20 Aug 9.1 00:51:56 21° E 00:51:56 21° E 00:53:32 10° ENE visible
20 Aug 7.2 02:28:18 56° W 02:29:22 84° N 02:34:20 10° E visible
20 Aug 7.2 04:05:11 10° WNW 04:10:06 67° SSW 04:14:57 10° ESE visible
21 Aug 9.1 00:57:37 22° E 00:57:37 22° E 00:59:19 10° E visible
21 Aug 7.2 02:34:01 53° W 02:35:10 87° N 02:40:08 10° E visible
21 Aug 7.4 04:10:59 10° WNW 04:15:48 52° SSW 04:20:33 10° SE visible
22 Aug 9.2 01:03:38 20° E 01:03:38 20° E 01:05:07 10° E visible
22 Aug 7.1 02:40:03 60° W 02:40:57 86° SSW 02:45:55 10° ESE visible
22 Aug 7.7 04:16:50 10° W 04:21:27 40° SSW 04:25:59 10° SE visible
23 Aug 9.6 01:10:10 14° E 01:10:10 14° E 01:10:54 10° E visible
23 Aug 7.1 02:46:38 74° SSW 02:46:43 74° SSW 02:51:39 10° ESE visible
23 Aug 8.1 04:23:06 12° W 04:27:01 29° SW 04:31:12 10° SSE visible
23 Aug 8.5 21:46:44 10° SSW 21:48:54 22° S 21:48:54 22° S visible
24 Aug 7.9 02:54:02 40° SE 02:54:02 40° SE 02:57:18 10° SE visible
24 Aug 8.5 04:30:34 17° WSW 04:32:31 21° SW 04:36:08 10° S visible
24 Aug 7.5 21:51:58 10° SW 21:56:16 39° SSE 21:56:22 39° SE visible
24 Aug 9.4 23:31:58 10° WSW 23:32:51 16° WSW 23:32:51 16° WSW visible
25 Aug 9.4 03:02:16 13° SE 03:02:16 13° SE 03:02:49 10° SE visible
25 Aug 9.0 04:38:50 14° SW 04:38:50 14° SW 04:40:32 10° SSW visible
25 Aug 8.7 20:19:17 10° S 20:22:02 16° SE 20:24:53 10° E visible
25 Aug 7.2 21:57:25 10° SW 22:01:54 53° SSE 22:03:02 42° ESE visible
25 Aug 9.0 23:37:45 10° W 23:39:27 22° W 23:39:27 22° W visible
26 Aug 8.3 20:23:56 10° SSW 20:27:29 23° SE 20:31:12 10° E visible
26 Aug 7.0 22:03:01 10° WSW 22:07:36 67° SSE 22:09:06 42° E visible
26 Aug 8.9 23:43:32 10° W 23:45:29 25° W 23:45:29 25° W visible
27 Aug 7.8 20:29:01 10° SSW 20:33:01 32° SE 20:37:13 10° E visible
27 Aug 7.0 22:08:42 10° WSW 22:13:19 80° SSE 22:14:48 44° E visible
27 Aug 9.0 23:49:20 10° W 23:51:11 24° W 23:51:11 24° W visible
28 Aug 7.5 20:34:21 10° SW 20:38:36 44° SSE 20:43:07 10° E visible
28 Aug 7.0 22:14:27 10° W 22:19:05 90° NNW 22:20:18 51° E visible
28 Aug 9.2 23:55:06 10° W 23:56:40 21° W 23:56:40 21° W visible
29 Aug 7.2 20:39:51 10° SW 20:44:15 58° SSE 20:48:55 10° ENE visible
29 Aug 7.1 22:20:14 10° W 22:24:53 84° N 22:25:41 61° ENE visible
